Regional Weather Roundup
Issued by NWS Kansas City/Pleasant Hill, MO

Home | Current Version | Previous Version | Text Only | Print | Product List | Glossary On
Versions: 1 2 3 4 5 6 7 8 9 10 11 12 13 14 15 16 17 18 19 20 21 22 23 24 25 26 27 28 29
000
ASUS43 KEAX 291510
RWREAX

WEATHER ROUNDUP FOR EASTERN KANSAS AND NORTHWEST MISSOURI
NATIONAL WEATHER SERVICE KANSAS CITY/PLEASANT HILL MO
1000 AM CDT FRI APR 29 2016

KSZ040-057-103>105-MOZ028-029-037-043-291600-
...KANSAS CITY METROPOLITAN AREA...

CITY           SKY/WX    TMP DP  RH WIND       PRES   REMARKS
K.C. INTL      CLOUDY    50  43  77 NE10      30.04F
K.C. DOWNTOWN  CLOUDY    52  45  77 NE10      30.03F
LEES SUMMIT    CLOUDY    52  45  77 NE14      30.02F
OLATHE - IXD     N/A     53  45  74 MISG      30.01F
OLATHE - OJC   CLOUDY    51  44  77 E13       30.01F
LAWRENCE       CLOUDY    50  44  80 E10       30.03F

$$

MOZ001>008-011>017-020>025-030>033-038>040-044>046-053-054-291600-
...NORTHERN AND CENTRAL MISSOURI...

CITY           SKY/WX    TMP DP  RH WIND       PRES   REMARKS
ST. JOSEPH     CLOUDY    49  42  77 E9        30.07S
MOSBY          CLOUDY    52  43  71 NE7       30.05F
WARRENSBURG    CLOUDY    52  45  76 N10       30.02F
WHITEMAN AFB   PTSUNNY   53  49  84 NE12      30.01F
CLINTON        CLOUDY    54  48  82 NE12      30.02R
SEDALIA        PTSUNNY   55  48  77 NE10      30.04F
WARSAW         NOT AVBL
CHILLICOTHE      N/A     51  46  83 NE8       30.06F
KIRKSVILLE     CLOUDY    52  45  77 NE10      30.07F

$$

MOZ041-047>049-056>058-063>065-088>090-097-291600-
...EASTERN AND SOUTHERN MISSOURI...

CITY           SKY/WX    TMP DP  RH WIND       PRES   REMARKS
ST. LOUIS INTL CLOUDY    59  47  64 NE9       30.04F
SPIRIT OF STL  CLOUDY    58  50  75 NE10      30.02F
COLUMBIA       CLOUDY    55  49  80 NE9       30.04S
JEFFERSON CITY CLOUDY    54  47  77 E8        30.05R
ROLLA          CLOUDY    52  47  83 E8        30.03R
OSAGE BEACH    CLOUDY    52  43  71 E8        30.04R
SPRINGFIELD    RAIN      52  49  89 SE9       30.02R FOG
BRANSON        TSTM      52  50  93 E8        30.03F
JOPLIN         LGT RAIN  51  50  96 N13G20    29.92F
WEST PLAINS    CLOUDY    54  47  77 E8        30.03R

$$

IAZ060-094-KSZ022-034>040-054-083-096-NEZ052-066-093-291600-
...KANSAS...SOUTHEAST NEBRASKA AND IOWA...

CITY           SKY/WX    TMP DP  RH WIND       PRES   REMARKS
TOPEKA         CLOUDY    50  42  74 NE12      30.04F
MANHATTAN      CLOUDY    47  39  74 NE10      30.06R
EMPORIA        CLOUDY    50  43  77 NE14      29.99S
CHANUTE        MOSUNNY   56  46  69 E17       29.92F
WICHITA        RAIN      49  46  90 NE25      29.92F FOG
OMAHA          CLOUDY    47  39  74 E9        30.12R
LINCOLN        CLOUDY    47  38  71 E14       30.11R
FALLS CITY     CLOUDY    48  42  80 NE9       30.07F
LAMONI         CLOUDY    49  44  83 NE12      30.08F
DES MOINES     CLOUDY    47  40  76 E8        30.12R

$$





USA.gov is the U.S. government's official web portal to all federal, state and local government web resources and services.